Regional Weather Roundup
Issued by NWS

Home | Current Version | Previous Version | Text Only | Print | Product List | Glossary On
Versions: 1 2 3 4 5 6 7 8 9 10 11 12 13 14 15 16 17 18 19 20 21 22 23 24 25 26 27 28 29 30 31 32 33 34 35 36 37 38 39 40 41 42 43 44 45 46 47 48 49 50
067
ASUS46 KSEW 241310
RWRWA

WASHINGTON REGIONAL WEATHER ROUNDUP
NATIONAL WEATHER SERVICE SEATTLE WA
600 AM PDT SAT JUN 24 2017

NOTE:"FAIR" INDICATES FEW OR NO CLOUDS BELOW 12,000 FEET WITH NO
SIGNIFICANT WEATHER AND/OR OBSTRUCTIONS TO VISIBILITY.

WAZ507-509-555>559-241400-
SEATTLE, TACOMA, EVERETT, AND VICINITY

CITY           SKY/WX    TMP DP  RH WIND       PRES   REMARKS
EVERETT        CLEAR     60  47  61 CALM      30.16F
BOEING FIELD   CLEAR     61  54  77 W3        30.14S
RENTON         CLEAR     57  52  83 CALM      30.14S
SEATAC AIRPORT CLEAR     62  51  67 NE6       30.15S
JBLM-MCCHORD   CLEAR     51  51  99 CALM      30.14R
PUYALLUP       FAIR      54  54 100 CALM      30.14S
BREMERTON      CLEAR     61  45  55 NE13      30.14S
JBLM-FT LEWIS  CLEAR     53  51  94 CALM      30.13S
TACOMA NARROWS CLEAR     56  48  74 CALM      30.15S
$$

WAZ001-503-506-510-514-515-241400-
NORTH INTERIOR

CITY           SKY/WX    TMP DP  RH WIND       PRES   REMARKS
BELLINGHAM     CLEAR     52  51  97 CALM      30.16R
FRIDAY HARBOR  CLEAR     56  50  80 CALM      30.17R
EASTSOUND      CLEAR     57  54  88 CALM      30.16F
PORT ANGELES   CLEAR     57  41  55 SW5       30.17S
EDIZ HOOK      FAIR      56  43  61 SE6       30.16S
PORT TOWNSEND  FAIR      48  48 100 CALM      30.16S
NAS WHIDBEY    CLEAR     51  44  77 NW3       30.20R
ARLINGTON      CLEAR     51  50  96 CALM      30.16S
BURLINGTON     CLEAR     54  50  87 NW5       30.16S
$$

WAZ020-022-039-040-504-511-512-241400-
SOUTHWEST INTERIOR

CITY           SKY/WX    TMP DP  RH WIND       PRES   REMARKS
SHELTON        CLEAR     45  42  89 CALM      30.12S
OLYMPIA        CLEAR     51  49  92 N3        30.14R
CHEHALIS       FAIR      52  50  93 CALM      30.12S
KELSO          CLEAR     55  50  83 CALM      30.09S
VANCOUVER      CLEAR     56  49  77 CALM      30.05S
SCAPPOOSE, OR  CLEAR     57  50  77 CALM      30.05R
PORTLAND, OR   CLEAR     61  50  67 W3        30.06R
$$

WAZ021-516-517-241400-
WASHINGTON COAST

CITY           SKY/WX    TMP DP  RH WIND       PRES   REMARKS
FORKS          CLEAR     52  47  83 E5        30.11S
HOQUIAM        CLEAR     54  50  86 NE5       30.10S
ASTORIA, OR    CLEAR     66  49  54 E10       30.04S
$$

WAZ019-023-024-040-567>569-241400-
CASCADE MOUNTAINS AND COLUMBIA GORGE

CITY           SKY/WX    TMP DP  RH WIND       PRES   REMARKS
STAMPEDE PASS  CLEAR     55  46  71 VRB3      30.28S
TROUTDALE, OR  CLEAR     58  54  86 CALM      30.05R
HOOD RIVER, OR SUNNY     50  45  81 CALM      30.16R
THE DALLES, OR CLEAR     51  43  74 E3        30.15R
$$

WAZ026-027-041>044-520-521-241400-
EAST SLOPES

CITY           SKY/WX    TMP DP  RH WIND       PRES   REMARKS
OMAK           CLEAR     58  38  47 N10       30.23R
WENATCHEE      CLEAR     60  45  57 W12       30.20R
ELLENSBURG     CLEAR     54  42  64 NE3       30.21R
YAKIMA         CLEAR     53  45  74 W8        30.19R
SUNNYSIDE ARPT SUNNY     48  44  85 CALM      30.17R
YAKIMA TC      NOT AVBL
$$

WAZ028-034-035-241400-
COLUMBIA BASIN

CITY           SKY/WX    TMP DP  RH WIND       PRES   REMARKS
EPHRATA        CLEAR     58  40  51 CALM      30.18R
MOSES LAKE     CLEAR     55  42  61 N6        30.19R
PASCO          CLEAR     51  47  86 N3        30.16R
RICHLAND ARPT  SUNNY     55  47  75 CALM      30.16R
HERMISTON, OR  CLEAR     51  45  79 SE5       30.15R
$$

WAZ036>038-241400-
NORTHEAST WASHINGTON

CITY           SKY/WX    TMP DP  RH WIND       PRES   REMARKS
SPOKANE GEIGER CLEAR     56  44  64 NE5       30.23R
SPOKANE FELTS  CLEAR     52  45  77 CALM      30.24R
FAIRCHILD AFB  CLEAR     53  43  67 NE7       30.23R
COEURDALENE,ID CLEAR     55  44  66 E6        30.25R
DEER PARK      CLEAR     48  41  76 MISG      30.24R
$$

WAZ029>033-241400-
SOUTHEAST WASHINGTON

CITY           SKY/WX    TMP DP  RH WIND       PRES   REMARKS
PULLMAN        CLEAR     52  39  61 E3        30.24R
LEWISTON, ID   CLEAR     56  43  61 E5        30.21
WALLA WALLA    CLEAR     61  43  51 E3        30.16R
PENDLETON, OR  CLEAR     53  42  66 E8        30.16R
$$




USA.gov is the U.S. government's official web portal to all federal, state and local government web resources and services.